Location: Maccacari
(45.1333°N, 11.1333°E)
Time: 07:39:52
(UTC+00:00)

Cosmos 1603 - Pass Details

Date: 18 September 2020
Orbit: 832 x 858 km, 71.0° (Epoch: 29 October)

Event Time Altitude Azimuth Distance (km) Brightness Sun altitude
Rises 18:22:39 0° 331° (NNW) 3,418 7.6 -11.7°
Reaches altitude 10° 18:25:09 10° 328° (NNW) 2,475 6.8 -12.2°
Maximum altitude 18:30:43 61° 250° (WSW) 954 4.2 -13.1°
Drops below altitude 10° 18:36:13 10° 171° (S) 2,442 5.8 -14.1°
Sets 18:38:40 0° 168° (SSE) 3,369 6.5 -14.5°
